• En Colombia
  • Lista de países
  • Para 7 días
  • Temperatura del agua
  • El tiempo en el mapa
  • Informadores
  • user-avatar
    Iniciar sesión

    Tiempo cada hora Marianske Lazni

    Hoy, 12 Diciembre, Jueves

    Tiempo Temperatura Precipitaciones Viento Presión Humedad
    00:00 -2°C° 0 mm 2 mps 701 mmHg 73%
    01:00 -2°C° 0 mm 2 mps 700 mmHg 78%
    02:00 -2°C° 0 mm 2 mps 700 mmHg 82%
    03:00 -2°C° 0 mm 2 mps 700 mmHg 86%
    04:00 -2°C° 0 mm 2 mps 700 mmHg 90%
    05:00 -2°C° 0.3 mm 2 mps 700 mmHg 92%
    06:00 -1°C° 0.3 mm 2 mps 700 mmHg 95%
    07:00 -1°C° 0.3 mm 2 mps 700 mmHg 97%
    08:00 -1°C° 0.1 mm 2 mps 700 mmHg 96%
    09:00 -1°C° 0.1 mm 2 mps 700 mmHg 96%
    10:00 +1°C° 0.1 mm 2 mps 700 mmHg 95%
    11:00 +1°C° 0 mm 2 mps 700 mmHg 92%
    12:00 0°C° 0 mm 3 mps 700 mmHg 89%
    13:00 +1°C° 0 mm 3 mps 700 mmHg 87%
    14:00 0°C° 0.1 mm 3 mps 700 mmHg 90%
    15:00 +1°C° 0.1 mm 2 mps 699 mmHg 93%
    16:00 -1°C° 0.1 mm 2 mps 698 mmHg 97%
    17:00 -1°C° 0.1 mm 2 mps 698 mmHg 97%
    18:00 -1°C° 0.1 mm 2 mps 698 mmHg 97%
    19:00 -1°C° 0.1 mm 2 mps 698 mmHg 97%
    20:00 -1°C° 0.1 mm 2 mps 697 mmHg 97%
    21:00 -1°C° 0.1 mm 2 mps 696 mmHg 97%
    22:00 -1°C° 0.1 mm 2 mps 695 mmHg 97%
    23:00 -2°C° 0 mm 2 mps 694 mmHg 95%

    Mañana, 13 Diciembre, Viernes

    Tiempo Temperatura Precipitaciones Viento Presión Humedad
    00:00 -2°C° 0 mm 2 mps 693 mmHg 94%
    01:00 -2°C° 0 mm 3 mps 692 mmHg 93%
    02:00 -3°C° 0 mm 2 mps 691 mmHg 93%
    03:00 -3°C° 0 mm 2 mps 690 mmHg 93%
    04:00 -3°C° 0 mm 2 mps 689 mmHg 93%
    05:00 -4°C° 0 mm 2 mps 688 mmHg 94%
    06:00 -4°C° 0 mm 2 mps 687 mmHg 94%
    07:00 -4°C° 0 mm 2 mps 686 mmHg 95%
    08:00 -4°C° 0 mm 2 mps 685 mmHg 92%
    09:00 -3°C° 0 mm 2 mps 685 mmHg 89%
    10:00 -3°C° 0 mm 2 mps 685 mmHg 87%
    11:00 -2°C° 0.1 mm 2 mps 685 mmHg 87%
    12:00 -2°C° 0.1 mm 3 mps 685 mmHg 87%
    13:00 -1°C° 0.1 mm 3 mps 685 mmHg 87%
    14:00 -2°C° 0.1 mm 4 mps 685 mmHg 90%
    15:00 -2°C° 0.1 mm 4 mps 686 mmHg 93%
    16:00 -1°C° 0.1 mm 5 mps 686 mmHg 95%
    17:00 -1°C° 0.1 mm 5 mps 687 mmHg 94%
    18:00 -1°C° 0.1 mm 5 mps 687 mmHg 93%
    19:00 -2°C° 0.1 mm 6 mps 688 mmHg 91%
    20:00 -2°C° 0.1 mm 6 mps 689 mmHg 92%
    21:00 -2°C° 0.1 mm 6 mps 689 mmHg 93%
    22:00 -2°C° 0.1 mm 6 mps 690 mmHg 94%
    23:00 -2°C° 0.1 mm 6 mps 690 mmHg 94%

    Pasado mañana, 14 Diciembre, Sábado

    Tiempo Temperatura Precipitaciones Viento Presión Humedad
    00:00 -2°C° 0.1 mm 6 mps 691 mmHg 94%
    01:00 -2°C° 0.1 mm 6 mps 692 mmHg 95%
    02:00 -2°C° 0.1 mm 6 mps 692 mmHg 95%
    03:00 -3°C° 0.1 mm 7 mps 693 mmHg 95%
    04:00 -3°C° 0.1 mm 7 mps 693 mmHg 96%
    05:00 -3°C° 0.2 mm 7 mps 693 mmHg 93%
    06:00 -3°C° 0.2 mm 6 mps 694 mmHg 91%
    07:00 -3°C° 0.2 mm 6 mps 694 mmHg 89%
    08:00 -3°C° 0.1 mm 6 mps 694 mmHg 90%
    09:00 -3°C° 0.1 mm 6 mps 694 mmHg 92%
    10:00 -3°C° 0.1 mm 7 mps 694 mmHg 93%
    11:00 -2°C° 0.6 mm 7 mps 694 mmHg 91%
    12:00 0°C° 0.6 mm 8 mps 694 mmHg 90%
    13:00 +1°C° 0.6 mm 8 mps 694 mmHg 88%
    14:00 +1°C° 0.1 mm 8 mps 695 mmHg 85%
    15:00 0°C° 0.1 mm 7 mps 696 mmHg 83%
    16:00 0°C° 0.1 mm 7 mps 696 mmHg 80%
    17:00 +1°C° 0 mm 6 mps 697 mmHg 82%
    18:00 -1°C° 0 mm 6 mps 698 mmHg 84%
    19:00 -1°C° 0 mm 5 mps 698 mmHg 86%
    20:00 -1°C° 0 mm 4 mps 699 mmHg 87%
    21:00 -1°C° 0 mm 4 mps 699 mmHg 88%
    22:00 0°C° 0 mm 4 mps 699 mmHg 90%
    23:00 +1°C° 0.1 mm 4 mps 699 mmHg 91%

    15 Diciembre, Domingo

    Tiempo Temperatura Precipitaciones Viento Presión Humedad
    00:00 +1°C° 0.1 mm 4 mps 699 mmHg 93%
    01:00 +3°C° 0.1 mm 4 mps 700 mmHg 95%
    02:00 +3°C° 0.4 mm 3 mps 700 mmHg 95%
    03:00 +3°C° 0.4 mm 3 mps 699 mmHg 96%
    04:00 +3°C° 0.4 mm 3 mps 699 mmHg 96%
    05:00 +4°C° 0.8 mm 4 mps 699 mmHg 95%
    06:00 +3°C° 0.8 mm 5 mps 699 mmHg 94%
    07:00 +5°C° 0.8 mm 5 mps 699 mmHg 93%
    08:00 +4°C° 0.6 mm 6 mps 699 mmHg 90%
    09:00 +5°C° 0.6 mm 6 mps 699 mmHg 87%
    10:00 +5°C° 0.6 mm 7 mps 700 mmHg 84%
    11:00 +5°C° 0.8 mm 7 mps 700 mmHg 85%
    12:00 +5°C° 0.8 mm 7 mps 701 mmHg 86%
    13:00 +4°C° 0.8 mm 8 mps 701 mmHg 87%
    14:00 +4°C° 0.3 mm 7 mps 702 mmHg 85%
    15:00 +3°C° 0.3 mm 6 mps 703 mmHg 84%
    16:00 +3°C° 0.3 mm 5 mps 704 mmHg 82%
    17:00 +3°C° 0 mm 4 mps 705 mmHg 84%
    18:00 +1°C° 0 mm 4 mps 705 mmHg 87%
    19:00 +2°C° 0 mm 3 mps 706 mmHg 90%
    20:00 +2°C° 0 mm 3 mps 706 mmHg 90%
    21:00 +2°C° 0 mm 3 mps 706 mmHg 90%
    22:00 +3°C° 0 mm 2 mps 706 mmHg 91%
    23:00 +3°C° 0 mm 2 mps 706 mmHg 91%

    16 Diciembre, Lunes

    Tiempo Temperatura Precipitaciones Viento Presión Humedad
    00:00 +3°C° 0 mm 2 mps 707 mmHg 91%
    01:00 +3°C° 0 mm 2 mps 707 mmHg 91%
    02:00 +3°C° 0 mm 2 mps 707 mmHg 92%
    03:00 +3°C° 0 mm 2 mps 707 mmHg 93%
    04:00 +3°C° 0 mm 3 mps 707 mmHg 95%
    05:00 +4°C° 0 mm 2 mps 707 mmHg 95%
    06:00 +3°C° 0 mm 2 mps 707 mmHg 95%
    07:00 +3°C° 0 mm 2 mps 707 mmHg 96%
    08:00 +4°C° 0 mm 2 mps 707 mmHg 95%
    09:00 +5°C° 0 mm 1 mps 707 mmHg 94%
    10:00 +6°C° 0 mm 1 mps 707 mmHg 93%
    11:00 +6°C° 0 mm 1 mps 706 mmHg 90%
    12:00 +7°C° 0 mm 1 mps 706 mmHg 87%
    13:00 +7°C° 0 mm 1 mps 706 mmHg 85%
    14:00 +7°C° 0 mm 1 mps 705 mmHg 87%
    15:00 +6°C° 0 mm 1 mps 705 mmHg 88%
    16:00 +5°C° 0 mm 1 mps 705 mmHg 90%
    17:00 +5°C° 0 mm 1 mps 705 mmHg 90%
    18:00 +5°C° 0 mm 1 mps 705 mmHg 90%
    19:00 +4°C° 0 mm 1 mps 704 mmHg 91%
    20:00 +4°C° 0 mm 1 mps 704 mmHg 92%
    21:00 +4°C° 0 mm 1 mps 704 mmHg 93%
    22:00 +3°C° 0 mm 1 mps 704 mmHg 93%
    23:00 +3°C° 0 mm 1 mps 704 mmHg 94%

    17 Diciembre, Martes

    Tiempo Temperatura Precipitaciones Viento Presión Humedad
    00:00 +3°C° 0 mm 1 mps 704 mmHg 94%
    01:00 +2°C° 0 mm 1 mps 704 mmHg 95%
    02:00 +2°C° 0 mm 1 mps 703 mmHg 95%
    03:00 +2°C° 0 mm 1 mps 703 mmHg 94%
    04:00 +2°C° 0 mm 1 mps 703 mmHg 94%
    05:00 +2°C° 0 mm 1 mps 703 mmHg 93%
    06:00 +2°C° 0 mm 1 mps 703 mmHg 93%
    07:00 +2°C° 0 mm 1 mps 703 mmHg 93%
    08:00 +2°C° 0 mm 1 mps 704 mmHg 90%
    09:00 +3°C° 0 mm 1 mps 704 mmHg 88%
    10:00 +2°C° 0 mm 0 mps 705 mmHg 86%
    11:00 +3°C° 0 mm 0 mps 705 mmHg 83%
    12:00 +4°C° 0 mm 0 mps 704 mmHg 80%
    13:00 +5°C° 0 mm 0 mps 704 mmHg 77%
    14:00 +5°C° 0 mm 0 mps 704 mmHg 79%
    15:00 +4°C° 0 mm 0 mps 704 mmHg 81%
    16:00 +5°C° 0 mm 1 mps 704 mmHg 83%
    17:00 +3°C° 0 mm 0 mps 704 mmHg 83%
    18:00 +3°C° 0 mm 0 mps 704 mmHg 84%
    19:00 +3°C° 0 mm 0 mps 705 mmHg 84%
    20:00 +4°C° 0 mm 1 mps 705 mmHg 85%
    21:00 +3°C° 0 mm 1 mps 705 mmHg 85%
    22:00 +3°C° 0 mm 1 mps 706 mmHg 86%
    23:00 +2°C° 0 mm 2 mps 706 mmHg 87%
    Mostrar más